Flag for U.S.A. Weather past 2 weeks in Midway, Midway Atoll, U.S.A.

Now
80 °F

Partly sunny.


Feels Like: 85 °F
Forecast: 80 / 86 °F
Wind: 5 mph from South

Location: Midway Island Naval Air Facility

Current Time: Aug 3, 2015 at 8:24:34 AM

Latest Report: Aug 3, 2015 at 7:56 AM


Visibility: N/A

Pressure: 30.84 "Hg

Humidity: 84%

Dew point: 75 °F

Location of MidwayLocation

Historic Weather in Midway — Graph

°F

Midway temperature yesterday

Maximum temperature yesterday: 87 °F (at 12:56 PM)
Minimum temperature yesterday: 79 °F (at 12:56 AM)
Average temperature yesterday: 83 °F

Past Weeks' High & Low Weather Summary

 TemperatureHumidityPressure
High88 °F (Jul 20, 1:08 PM)94% (Jul 24, 8:56 AM)31.00 "Hg (Jul 24, 8:56 AM)
Low73 °F (Jul 24, 5:56 AM)57% (Jul 29, 11:56 AM)28.05 "Hg (Jul 19, 9:56 AM)
Average80 °F77%30.37 "Hg
* Reported Jul 19 6:56 AM — Aug 3 6:56 AM, Midway, Weather by CustomWeather, © 2015

Note: Actual official high and low records may vary slightly from our data, if they occured in-between our weather recording intervals... More about our weather records

Advertising

Midway weather history for previous 24 hours

 ConditionsComfort  
Time TempWeatherWind HumidityBarometerVisibility
6:56 AM
Mon, Aug 3
80 °FBroken clouds.8 mph88%30.83 "HgN/A
6:33 AM81 °FPartly sunny.10 mph84%29.93 "HgN/A
6:12 AM81 °FPartly sunny.8 mph84%29.92 "HgN/A
5:56 AM80 °FClear.9 mph88%30.82 "HgN/A
4:56 AM80 °FClear.8 mph88%30.81 "HgN/A
3:56 AM80 °FClear.12 mph88%30.81 "HgN/A
3:16 AM81 °FPassing clouds.10 mph89%29.91 "HgN/A
2:56 AM80 °FPassing clouds.9 mph88%30.81 "HgN/A
2:35 AM81 °FPassing clouds.10 mph84%29.92 "HgN/A
2:04 AM81 °FLight rain. Partly cloudy.8 mph89%29.92 "HgN/A
1:14 AM81 °FPassing clouds.9 mph84%29.93 "HgN/A
12:46 AM81 °FPassing clouds.9 mph84%29.93 "HgN/A
11:56 PM
Sun, Aug 2
81 °FPartly cloudy.8 mph85%30.84 "HgN/A
10:56 PM81 °FPassing clouds.10 mph85%30.84 "HgN/A
10:35 PM81 °FPassing clouds.8 mph89%29.94 "HgN/A
9:56 PM81 °FClear.7 mph85%30.83 "HgN/A
8:56 PM82 °FClear.8 mph82%30.81 "HgN/A
7:56 PM82 °FClear.8 mph82%30.81 "HgN/A
6:56 PM83 °FPartly sunny.8 mph79%30.80 "HgN/A
5:56 PM84 °FPartly sunny.13 mph77%30.80 "HgN/A
5:07 PM82 °FPartly sunny.10 mph74%29.90 "HgN/A
4:56 PM85 °FPartly sunny.12 mph77%30.80 "HgN/A
4:21 PM86 °FPartly sunny.13 mph75%29.91 "HgN/A
3:56 PM86 °FSunny.10 mph75%30.81 "HgN/A
3:41 PM86 °FPartly sunny.9 mph75%29.91 "HgN/A
3:14 PM86 °FSunny.9 mph75%29.92 "HgN/A
2:56 PM86 °FPartly sunny.10 mph75%30.81 "HgN/A
1:56 PM86 °FBroken clouds.13 mph75%30.83 "HgN/A
1:33 PM86 °FPartly sunny.13 mph75%29.94 "HgN/A
12:56 PM87 °FSunny.9 mph70%30.84 "HgN/A
12:05 PM86 °FSunny.12 mph75%29.94 "HgN/A
11:56 AM86 °FPartly sunny.14 mph75%30.84 "HgN/A
11:06 AM84 °FBroken clouds.13 mph79%29.95 "HgN/A
10:56 AM84 °FSunny.9 mph80%30.85 "HgN/A
9:56 AM84 °FPartly sunny.9 mph80%30.85 "HgN/A
9:14 AM82 °FSunny.8 mph84%29.95 "HgN/A
8:56 AM83 °FPartly sunny.10 mph82%30.84 "HgN/A
Weather by CustomWeather, © 2015

See weather overviewHow to use our weather pages